SPACEBEE-110 (48899 NORAD) Tracking and Keplerian Element Data

This shows tracking and keplerian element data for the satellite.

Feedback or suggestion? Click here.




ElementValue
Catalog48899
NameSPACEBEE-110
Epoch Orbit1387
Epoch Day268.59851354
Epoch Year2021
RAAN36.0839
Inclination97.5269
Eccentricity0.0008656
Argument of Perigee299.9058
Mean Anonmoly60.1312
Mean Motion15.12513101
Decay Rate3.665E-05
L11 48899U 21059W 21268.59851354 .00003665 00000-0 21406-3 0 9990
L22 48899 97.5269 36.0839 0008656 299.9058 60.1312 15.12513101 13876

Live tracking and technical data element details for SPACEBEE-110 (NORAD 48899). SPACEBEE-110 can be tracked NOW for your location showing map with azimuth and elevation plus other details from your city location.

Track the satellite on the map from your city or location and see movement details for azimuth, elevation, latitude, longitude, range, height, and movement on the map or in text.







IsCatalogInMostPopularTable: catalog: 48899, numindb: 13
Update: records affected: 1



GetName: 48899 SPACEBEE-110

Hit Count: updated at: Sun, 26 Sep 2021 15:25:52 GMT